This is the latest recevied weather packets stored in our database for station/object OE9FWV-10. If no packets are shown the sender has not sent any weather packets the latest 10 day(s).
| Time | Temp. | Humidity | Pressure | Rain* | Wind** | Luminosity | Snow |
|---|---|---|---|---|---|---|---|
| 1777739270 | 30° C | 25% | 1020.2 hPa | - | - | - | - |
| 1777738370 | 30° C | 25% | 1020.3 hPa | - | - | - | - |
| 1777737470 | 30° C | 25% | 1020.5 hPa | - | - | - | - |
| 1777736569 | 30.56° C | 25% | 1020.5 hPa | - | - | - | - |
| 1777735669 | 30.56° C | 24% | 1020.7 hPa | - | - | - | - |
| 1777734769 | 31.11° C | 23% | 1020.9 hPa | - | - | - | - |
| 1777733868 | 33.33° C | 19% | 1020.9 hPa | - | - | - | - |
| 1777732967 | 37.22° C | 14% | 1021.1 hPa | - | - | - | - |
| 1777732067 | 37.22° C | 14% | 1021.3 hPa | - | - | - | - |
| 1777731167 | 37.78° C | 14% | 1021.5 hPa | - | - | - | - |
| 1777730267 | 38.33° C | 14% | 1021.8 hPa | - | - | - | - |
| 1777729367 | 38.33° C | 14% | 1021.9 hPa | - | - | - | - |
| 1777728467 | 37.22° C | 14% | 1022.2 hPa | - | - | - | - |
| 1777727567 | 37.22° C | 14% | 1022.3 hPa | - | - | - | - |
| 1777726667 | 37.22° C | 14% | 1022.5 hPa | - | - | - | - |
| 1777725767 | 37.78° C | 14% | 1022.6 hPa | - | - | - | - |
| 1777724867 | 37.22° C | 15% | 1022.8 hPa | - | - | - | - |
| 1777723967 | 36.67° C | 15% | 1023.1 hPa | - | - | - | - |
| 1777723066 | 36.67° C | 15% | 1023.3 hPa | - | - | - | - |
| 1777722166 | 36.67° C | 15% | 1023.5 hPa | - | - | - | - |
| 1777721266 | 35.56° C | 16% | 1023.8 hPa | - | - | - | - |
| 1777720366 | 35.56° C | 16% | 1024 hPa | - | - | - | - |
| 1777719465 | 34.44° C | 17% | 1024.2 hPa | - | - | - | - |
| 1777718565 | 33.89° C | 18% | 1024.4 hPa | - | - | - | - |
| 1777717665 | 33.33° C | 19% | 1024.6 hPa | - | - | - | - |
* Rain since midnight (hover to see other rain measurements)
** Current wind speed in m/s (hover to see current wind gust speed)